TimeEDT,TemperatureF,Dew PointF,Humidity,Sea Level PressureIn,VisibilityMPH,Wind Direction,Wind SpeedMPH,Gust SpeedMPH,PrecipitationIn,Events,Conditions,WindDirDegrees,DateUTC
12:19 AM,68.0,66.2,94,30.21,1.8,NNW,4.6,-,N/A,,Clear,340,2013-07-05 04:19:00
12:30 AM,68.0,66.2,94,30.21,3.0,Calm,Calm,-,N/A,,Clear,0,2013-07-05 04:30:00
12:54 AM,68.0,66.0,93,30.18,7.0,North,3.5,-,N/A,,Clear,360,2013-07-05 04:54:00
1:54 AM,68.0,66.0,93,30.19,10.0,Calm,Calm,-,0.01,,Clear,0,2013-07-05 05:54:00
2:33 AM,66.2,66.2,100,30.21,1.5,North,3.5,-,N/A,,Clear,360,2013-07-05 06:33:00
2:36 AM,66.2,66.2,100,30.21,0.8,Calm,Calm,-,N/A,,Mist,0,2013-07-05 06:36:00
2:45 AM,66.2,64.4,94,30.21,1.5,NNW,3.5,-,N/A,,Partly Cloudy,340,2013-07-05 06:45:00
2:47 AM,66.2,64.4,94,30.21,3.0,NNW,3.5,-,N/A,,Partly Cloudy,340,2013-07-05 06:47:00
2:54 AM,66.0,64.9,96,30.18,1.8,North,3.5,-,N/A,,Partly Cloudy,350,2013-07-05 06:54:00
3:06 AM,66.2,64.4,94,30.21,3.0,Calm,Calm,-,N/A,,Clear,0,2013-07-05 07:06:00
3:14 AM,66.2,64.4,94,30.21,6.0,Calm,Calm,-,N/A,,Scattered Clouds,0,2013-07-05 07:14:00
3:23 AM,66.2,64.4,94,30.21,4.0,Calm,Calm,-,N/A,,Mostly Cloudy,0,2013-07-05 07:23:00
3:27 AM,66.2,64.4,94,30.21,1.8,Calm,Calm,-,N/A,,Mostly Cloudy,0,2013-07-05 07:27:00
3:39 AM,66.2,64.4,94,30.21,2.0,Calm,Calm,-,N/A,,Scattered Clouds,0,2013-07-05 07:39:00
3:54 AM,66.0,64.9,96,30.18,1.8,Calm,Calm,-,N/A,,Partly Cloudy,0,2013-07-05 07:54:00
4:04 AM,66.2,64.4,94,30.21,3.0,Calm,Calm,-,N/A,,Partly Cloudy,0,2013-07-05 08:04:00
4:07 AM,66.2,64.4,94,30.21,1.5,Calm,Calm,-,N/A,,Scattered Clouds,0,2013-07-05 08:07:00
4:10 AM,64.4,64.4,100,30.21,0.8,Calm,Calm,-,N/A,,Mist,0,2013-07-05 08:10:00
4:34 AM,64.4,64.4,100,30.20,0.2,North,4.6,-,N/A,Fog,Fog,350,2013-07-05 08:34:00
4:44 AM,64.4,64.4,100,30.20,0.5,Calm,Calm,-,N/A,Fog,Fog,0,2013-07-05 08:44:00
4:54 AM,64.9,64.0,97,30.18,0.2,Calm,Calm,-,N/A,Fog,Fog,0,2013-07-05 08:54:00
5:26 AM,64.4,64.4,100,30.21,0.5,Calm,Calm,-,N/A,Fog,Fog,0,2013-07-05 09:26:00
5:37 AM,64.4,64.4,100,30.21,0.2,Calm,Calm,-,N/A,Fog,Fog,0,2013-07-05 09:37:00
5:54 AM,64.0,64.0,100,30.19,0.2,NE,3.5,-,N/A,Fog,Fog,40,2013-07-05 09:54:00
6:54 AM,64.9,64.0,97,30.19,0.2,Calm,Calm,-,N/A,Fog,Fog,0,2013-07-05 10:54:00
7:41 AM,66.2,66.2,100,30.22,0.5,Calm,Calm,-,N/A,Fog,Fog,0,2013-07-05 11:41:00
7:49 AM,68.0,66.2,94,30.22,2.0,Calm,Calm,-,N/A,,Mostly Cloudy,0,2013-07-05 11:49:00
7:54 AM,68.0,66.9,96,30.19,9.0,Calm,Calm,-,N/A,,Mostly Cloudy,0,2013-07-05 11:54:00
8:01 AM,69.8,66.2,88,30.22,10.0,Calm,Calm,-,N/A,,Scattered Clouds,0,2013-07-05 12:01:00
8:54 AM,72.0,68.0,87,30.20,10.0,Calm,Calm,-,N/A,,Clear,0,2013-07-05 12:54:00
9:54 AM,77.0,68.0,74,30.19,10.0,SSW,5.8,-,N/A,,Clear,210,2013-07-05 13:54:00
10:54 AM,79.0,66.0,64,30.19,10.0,WSW,10.4,-,N/A,,Partly Cloudy,250,2013-07-05 14:54:00
11:54 AM,80.1,64.9,60,30.19,10.0,SSW,12.7,17.3,N/A,,Scattered Clouds,210,2013-07-05 15:54:00
12:54 PM,80.1,64.9,60,30.19,10.0,SW,13.8,-,N/A,,Mostly Cloudy,230,2013-07-05 16:54:00
1:54 PM,82.9,66.9,58,30.17,10.0,SW,9.2,16.1,N/A,,Partly Cloudy,220,2013-07-05 17:54:00
2:54 PM,84.0,66.0,55,30.16,10.0,SW,9.2,-,N/A,,Partly Cloudy,220,2013-07-05 18:54:00
3:54 PM,84.0,66.0,55,30.14,10.0,SSW,9.2,17.3,N/A,,Scattered Clouds,200,2013-07-05 19:54:00
4:54 PM,84.9,66.0,53,30.12,10.0,Variable,6.9,-,N/A,Thunderstorm,Partly Cloudy,0,2013-07-05 20:54:00
5:13 PM,84.2,64.4,51,30.15,10.0,SW,8.1,16.1,N/A,,Partly Cloudy,230,2013-07-05 21:13:00
5:54 PM,84.0,64.0,51,30.12,10.0,SW,12.7,18.4,N/A,,Scattered Clouds,220,2013-07-05 21:54:00
6:54 PM,79.0,68.0,69,30.12,10.0,Variable,4.6,-,N/A,,Overcast,0,2013-07-05 22:54:00
7:39 PM,80.6,69.8,70,30.16,10.0,Variable,6.9,-,N/A,Thunderstorm,Mostly Cloudy,0,2013-07-05 23:39:00
7:54 PM,79.0,69.1,72,30.13,10.0,South,5.8,-,N/A,Thunderstorm,Mostly Cloudy,170,2013-07-05 23:54:00
8:24 PM,75.2,64.4,69,30.17,10.0,Variable,4.6,-,N/A,,Partly Cloudy,0,2013-07-06 00:24:00
8:54 PM,73.0,64.0,73,30.15,10.0,Variable,3.5,-,N/A,,Clear,0,2013-07-06 00:54:00
9:54 PM,71.1,64.9,81,30.16,10.0,Calm,Calm,-,N/A,,Clear,0,2013-07-06 01:54:00
10:54 PM,70.0,64.9,84,30.16,10.0,South,3.5,-,N/A,,Clear,190,2013-07-06 02:54:00
11:54 PM,69.1,66.0,90,30.17,10.0,Calm,Calm,-,N/A,,Partly Cloudy,0,2013-07-06 03:54:00